PGT2DK LTAW-LTBJ

Flight info

Callsign PGT2DK
Flight time 1h 25m
Altitude 38000
Route ENFOR3A ENFOR UA4 BUK UW71 BAG UP29 HALIL UT54 KFK UR32 NESET UT54 KULAR KULAR1E
Aircraft A20N/M-SDE2E3FGHIRWXY/LB1

Departure

Time 2026-04-28 21:30
Airport Tokat Airport (LTAW)

Arrival

Time 2026-04-28 22:56
Airport Adnan Menderes International Airport (LTBJ)
Time Latitude Longitude Altitude Speed Heading
2026-04-28 21:14 40.31901 36.38107 1923 ft 0 kts 160°
2026-04-28 21:22 40.31911 36.38102 1920 ft 2 kts 161°
2026-04-28 21:22 40.31927 36.38096 1920 ft 2 kts 166°
2026-04-28 21:22 40.31943 36.38092 1926 ft 2 kts 179°
2026-04-28 21:22 40.31958 36.38099 1926 ft 2 kts 232°
2026-04-28 21:23 40.31963 36.38111 1926 ft 1 kts 250°
2026-04-28 21:23 40.31963 36.38112 1926 ft 0 kts 250°
2026-04-28 21:27 40.31963 36.38110 1920 ft 2 kts 250°
2026-04-28 21:27 40.31962 36.38063 1919 ft 8 kts 303°
2026-04-28 21:27 40.32032 36.38020 1920 ft 14 kts 340°
2026-04-28 21:28 40.32133 36.37972 1922 ft 15 kts 340°
2026-04-28 21:28 40.32174 36.37874 1922 ft 14 kts 251°
2026-04-28 21:28 40.32142 36.37756 1922 ft 14 kts 249°
2026-04-28 21:28 40.32089 36.37655 1921 ft 12 kts 215°
2026-04-28 21:29 40.32057 36.37578 1922 ft 9 kts 297°
2026-04-28 21:29 40.32096 36.37587 1922 ft 7 kts 65°
2026-04-28 21:29 40.32111 36.37646 1922 ft 7 kts 70°
2026-04-28 21:29 40.32147 36.37777 1922 ft 39 kts 70°
2026-04-28 21:30 40.32319 36.38407 1921 ft 108 kts 70°
2026-04-28 21:30 40.32643 36.39592 1956 ft 160 kts 69°
2026-04-28 21:30 40.33025 36.40979 2523 ft 160 kts 69°
2026-04-28 21:30 40.33393 36.42337 3177 ft 158 kts 73°
2026-04-28 21:31 40.33509 36.43936 3531 ft 194 kts 90°
2026-04-28 21:31 40.33478 36.45808 3955 ft 221 kts 89°
2026-04-28 21:31 40.33507 36.47903 4636 ft 238 kts 86°
2026-04-28 21:31 40.33614 36.50168 5317 ft 259 kts 85°
2026-04-28 21:32 40.33772 36.52539 6402 ft 260 kts 84°
2026-04-28 21:32 40.33923 36.54890 7554 ft 259 kts 84°
2026-04-28 21:32 40.34063 36.57295 8385 ft 271 kts 85°
2026-04-28 21:32 40.33883 36.59782 9185 ft 282 kts 112°
2026-04-28 21:33 40.32640 36.61823 9835 ft 300 kts 146°
2026-04-28 21:33 40.30657 36.62742 10404 ft 313 kts 178°
2026-04-28 21:33 40.28438 36.62321 10752 ft 336 kts 198°
2026-04-28 21:33 40.26255 36.61105 11423 ft 345 kts 214°
2026-04-28 21:34 40.24435 36.59079 12531 ft 340 kts 229°
2026-04-28 21:34 40.22992 36.56681 13857 ft 334 kts 234°
2026-04-28 21:34 40.21590 36.54227 14714 ft 340 kts 233°
2026-04-28 21:34 40.20128 36.51774 15567 ft 344 kts 232°
2026-04-28 21:35 40.18606 36.49310 16463 ft 348 kts 231°
2026-04-28 21:35 40.17059 36.46848 17334 ft 352 kts 231°
2026-04-28 21:35 40.15490 36.44376 18158 ft 357 kts 231°
2026-04-28 21:35 40.13890 36.41869 18899 ft 361 kts 231°
2026-04-28 21:36 40.12272 36.39342 19660 ft 364 kts 231°
2026-04-28 21:36 40.10566 36.36869 20406 ft 368 kts 224°
2026-04-28 21:36 40.08516 36.34855 21153 ft 373 kts 211°
2026-04-28 21:36 40.06103 36.33556 21889 ft 378 kts 198°
2026-04-28 21:37 40.03550 36.32658 22602 ft 382 kts 196°
2026-04-28 21:37 40.00950 36.31830 23294 ft 385 kts 195°
2026-04-28 21:37 39.98378 36.30880 23885 ft 388 kts 201°
2026-04-28 21:37 39.95929 36.29403 24433 ft 388 kts 212°
2026-04-28 21:38 39.93752 36.27325 24989 ft 388 kts 224°
2026-04-28 21:38 39.91920 36.24680 25550 ft 388 kts 235°
2026-04-28 21:38 39.90553 36.21648 26096 ft 390 kts 246°
2026-04-28 21:38 39.89677 36.18309 26595 ft 392 kts 257°
2026-04-28 21:39 39.89329 36.14787 27118 ft 394 kts 268°
2026-04-28 21:39 39.89493 36.11207 27619 ft 398 kts 275°
2026-04-28 21:39 39.89874 36.07622 28104 ft 400 kts 278°
2026-04-28 21:39 39.90348 36.04034 28583 ft 403 kts 279°
2026-04-28 21:40 39.90860 36.00429 29045 ft 406 kts 279°
2026-04-28 21:40 39.91379 35.96798 29494 ft 408 kts 279°
2026-04-28 21:40 39.91888 35.93156 29935 ft 411 kts 278°
2026-04-28 21:40 39.92387 35.89485 30304 ft 413 kts 278°
2026-04-28 21:41 39.92884 35.85735 30667 ft 415 kts 278°
2026-04-28 21:41 39.93370 35.82008 30996 ft 418 kts 278°
2026-04-28 21:41 39.93852 35.78266 31342 ft 420 kts 278°
2026-04-28 21:41 39.94341 35.74463 31815 ft 419 kts 278°
2026-04-28 21:42 39.94818 35.70733 32311 ft 417 kts 278°
2026-04-28 21:42 39.95295 35.67006 32781 ft 416 kts 278°
2026-04-28 21:42 39.95768 35.63297 33215 ft 415 kts 278°
2026-04-28 21:42 39.96246 35.59543 33663 ft 413 kts 278°
2026-04-28 21:43 39.96715 35.55848 34099 ft 412 kts 278°
2026-04-28 21:43 39.97182 35.52160 34443 ft 412 kts 278°
2026-04-28 21:43 39.97647 35.48472 34697 ft 413 kts 278°
2026-04-28 21:43 39.98111 35.44785 34992 ft 413 kts 278°
2026-04-28 21:44 39.98427 35.42274 35212 ft 413 kts 278°
2026-04-28 21:44 39.98890 35.38587 35537 ft 412 kts 278°
2026-04-28 21:44 39.99353 35.34852 35857 ft 412 kts 278°
2026-04-28 21:44 39.99795 35.31209 36151 ft 411 kts 278°
2026-04-28 21:45 40.00240 35.27473 36445 ft 411 kts 278°
2026-04-28 21:45 40.00676 35.23793 36720 ft 411 kts 278°
2026-04-28 21:45 40.01111 35.20103 36989 ft 411 kts 278°
2026-04-28 21:45 40.01546 35.16406 37236 ft 412 kts 278°
2026-04-28 21:46 40.01979 35.12718 37488 ft 412 kts 278°
2026-04-28 21:46 40.02412 35.09031 37770 ft 411 kts 278°
2026-04-28 21:46 40.02839 35.05384 38003 ft 412 kts 278°
2026-04-28 21:46 40.03272 35.01684 38025 ft 413 kts 278°
2026-04-28 21:47 40.04133 34.94289 38022 ft 411 kts 278°
2026-04-28 21:47 40.04987 34.86910 38021 ft 411 kts 278°
2026-04-28 21:48 40.05843 34.79471 38014 ft 411 kts 278°
2026-04-28 21:48 40.06688 34.72089 38013 ft 411 kts 278°
2026-04-28 21:49 40.07527 34.64714 38013 ft 411 kts 278°
2026-04-28 21:49 40.08365 34.57300 38009 ft 411 kts 278°
2026-04-28 21:50 40.09198 34.49891 38007 ft 411 kts 278°
2026-04-28 21:50 40.10022 34.42519 38001 ft 412 kts 278°
2026-04-28 21:51 40.10843 34.35132 37997 ft 412 kts 278°
2026-04-28 21:51 40.11662 34.27714 37998 ft 412 kts 278°
2026-04-28 21:52 40.12476 34.20301 37998 ft 412 kts 278°
2026-04-28 21:52 40.13285 34.12885 38001 ft 412 kts 278°
2026-04-28 21:53 40.14088 34.05482 38003 ft 411 kts 278°
2026-04-28 21:53 40.14886 33.98079 38003 ft 411 kts 278°
2026-04-28 21:54 40.15785 33.90682 38006 ft 411 kts 280°
2026-04-28 21:54 40.16803 33.83326 38009 ft 411 kts 279°
2026-04-28 21:55 40.17662 33.75930 38011 ft 411 kts 278°
2026-04-28 21:55 40.18409 33.68528 38012 ft 411 kts 277°
2026-04-28 21:56 40.19146 33.61113 38019 ft 411 kts 277°
2026-04-28 21:56 40.19893 33.53686 38017 ft 411 kts 277°
2026-04-28 21:57 40.20641 33.46278 38031 ft 410 kts 277°
2026-04-28 21:57 40.21384 33.38886 38029 ft 410 kts 277°
2026-04-28 21:58 40.22122 33.31490 38040 ft 409 kts 277°
2026-04-28 21:58 40.22855 33.24100 38042 ft 409 kts 277°
2026-04-28 21:59 40.23387 33.16745 38052 ft 409 kts 270°
2026-04-28 22:00 40.21313 33.05938 38046 ft 413 kts 243°
2026-04-28 22:00 40.18062 32.99698 38048 ft 416 kts 236°
2026-04-28 22:01 40.14522 32.93692 38052 ft 417 kts 235°
2026-04-28 22:01 40.10954 32.87707 38050 ft 417 kts 235°
2026-04-28 22:02 40.07125 32.82010 38056 ft 421 kts 224°
2026-04-28 22:02 40.02229 32.77738 38045 ft 426 kts 212°
2026-04-28 22:03 39.96962 32.74115 38048 ft 428 kts 210°
2026-04-28 22:03 39.91631 32.70618 38051 ft 429 kts 210°
2026-04-28 22:04 39.86337 32.67128 38046 ft 428 kts 211°
2026-04-28 22:04 39.80988 32.63570 38052 ft 428 kts 211°
2026-04-28 22:05 39.75681 32.60032 38051 ft 428 kts 211°
2026-04-28 22:05 39.70378 32.56501 38044 ft 428 kts 211°
2026-04-28 22:06 39.65064 32.52969 38048 ft 429 kts 211°
2026-04-28 22:06 39.59741 32.49440 38047 ft 429 kts 211°
2026-04-28 22:07 39.54424 32.45920 38046 ft 429 kts 211°
2026-04-28 22:07 39.49125 32.42419 38043 ft 429 kts 211°
2026-04-28 22:08 39.43791 32.38781 38042 ft 427 kts 216°
2026-04-28 22:08 39.39340 32.33862 38045 ft 419 kts 234°
2026-04-28 22:09 39.36396 32.27460 38050 ft 414 kts 248°
2026-04-28 22:09 39.34183 32.20641 38050 ft 414 kts 251°
2026-04-28 22:10 39.32069 32.13721 38057 ft 414 kts 251°
2026-04-28 22:10 39.29924 32.06790 38060 ft 414 kts 250°
2026-04-28 22:11 39.27756 31.99911 38061 ft 414 kts 250°
2026-04-28 22:11 39.25568 31.93026 38068 ft 414 kts 250°
2026-04-28 22:12 39.23380 31.86160 38069 ft 414 kts 250°
2026-04-28 22:12 39.21021 31.79374 38062 ft 415 kts 246°
2026-04-28 22:13 39.18815 31.73816 38077 ft 415 kts 245°
2026-04-28 22:13 39.16129 31.67228 38081 ft 415 kts 245°
2026-04-28 22:14 39.13446 31.60693 38087 ft 415 kts 245°
2026-04-28 22:14 39.10743 31.54107 38083 ft 415 kts 245°
2026-04-28 22:15 39.08044 31.47535 38086 ft 415 kts 245°
2026-04-28 22:15 39.05341 31.40961 38091 ft 415 kts 245°
2026-04-28 22:16 39.02633 31.34389 38091 ft 415 kts 245°
2026-04-28 22:16 38.99924 31.27829 38094 ft 415 kts 245°
2026-04-28 22:17 38.97209 31.21269 38088 ft 415 kts 245°
2026-04-28 22:17 38.94491 31.14717 38095 ft 416 kts 245°
2026-04-28 22:18 38.91770 31.08170 38085 ft 415 kts 245°
2026-04-28 22:18 38.89021 31.01572 38088 ft 415 kts 245°
2026-04-28 22:19 38.86310 30.95078 38084 ft 415 kts 245°
2026-04-28 22:19 38.83576 30.88541 38092 ft 416 kts 245°
2026-04-28 22:20 38.80833 30.81996 38090 ft 416 kts 245°
2026-04-28 22:20 38.78091 30.75468 38089 ft 415 kts 245°
2026-04-28 22:21 38.75350 30.68957 38093 ft 415 kts 244°
2026-04-28 22:21 38.73011 30.62234 38095 ft 411 kts 256°
2026-04-28 22:22 38.72251 30.55057 38095 ft 407 kts 270°
2026-04-28 22:22 38.72295 30.47813 38104 ft 406 kts 273°
2026-04-28 22:23 38.72480 30.40567 38097 ft 407 kts 273°
2026-04-28 22:23 38.72653 30.33327 38104 ft 407 kts 273°
2026-04-28 22:24 38.72795 30.26087 38109 ft 407 kts 272°
2026-04-28 22:24 38.72921 30.18839 38101 ft 407 kts 272°
2026-04-28 22:25 38.73040 30.11595 38093 ft 407 kts 272°
2026-04-28 22:25 38.73156 30.04360 38091 ft 406 kts 273°
2026-04-28 22:26 38.72834 29.97138 38096 ft 408 kts 265°
2026-04-28 22:26 38.72021 29.89949 38078 ft 408 kts 263°
2026-04-28 22:27 38.71118 29.82814 38075 ft 408 kts 263°
2026-04-28 22:27 38.70182 29.75510 38071 ft 408 kts 263°
2026-04-28 22:28 38.69272 29.68354 38063 ft 407 kts 263°
2026-04-28 22:28 38.68364 29.61189 38063 ft 407 kts 263°
2026-04-28 22:29 38.67454 29.54038 38066 ft 407 kts 263°
2026-04-28 22:29 38.66548 29.46886 38060 ft 406 kts 264°
2026-04-28 22:30 38.65806 29.39765 38059 ft 406 kts 266°
2026-04-28 22:30 38.65136 29.32592 38058 ft 405 kts 266°
2026-04-28 22:31 38.64455 29.25384 38062 ft 406 kts 266°
2026-04-28 22:31 38.63764 29.18276 38062 ft 405 kts 266°
2026-04-28 22:32 38.63057 29.11114 38064 ft 405 kts 266°
2026-04-28 22:32 38.62345 29.03961 37855 ft 405 kts 266°
2026-04-28 22:32 38.61990 29.00407 37606 ft 398 kts 266°
2026-04-28 22:33 38.61639 28.96912 37236 ft 394 kts 266°
2026-04-28 22:33 38.61290 28.93434 36603 ft 397 kts 266°
2026-04-28 22:33 38.60937 28.89914 35992 ft 400 kts 266°
2026-04-28 22:33 38.60577 28.86331 35346 ft 403 kts 267°
2026-04-28 22:34 38.60215 28.82748 34657 ft 408 kts 267°
2026-04-28 22:34 38.59849 28.79134 33955 ft 413 kts 267°
2026-04-28 22:34 38.59476 28.75468 33187 ft 417 kts 267°
2026-04-28 22:34 38.59096 28.71755 32683 ft 414 kts 266°
2026-04-28 22:35 38.58727 28.68175 32179 ft 411 kts 266°
2026-04-28 22:35 38.58264 28.64524 31631 ft 411 kts 261°
2026-04-28 22:35 38.57363 28.61047 31109 ft 414 kts 251°
2026-04-28 22:35 38.56172 28.57692 30578 ft 414 kts 249°
2026-04-28 22:36 38.54929 28.54380 30011 ft 413 kts 248°
2026-04-28 22:36 38.53682 28.51078 29386 ft 411 kts 248°
2026-04-28 22:36 38.52446 28.47802 28834 ft 408 kts 248°
2026-04-28 22:36 38.51216 28.44537 28278 ft 406 kts 248°
2026-04-28 22:37 38.49998 28.41300 27724 ft 403 kts 248°
2026-04-28 22:37 38.48787 28.38081 27176 ft 401 kts 248°
2026-04-28 22:37 38.47577 28.34867 26606 ft 400 kts 248°
2026-04-28 22:37 38.46376 28.31678 26055 ft 398 kts 248°
2026-04-28 22:38 38.45236 28.28470 25492 ft 396 kts 253°
2026-04-28 22:38 38.44534 28.25099 24936 ft 391 kts 262°
2026-04-28 22:38 38.44054 28.21688 24384 ft 390 kts 263°
2026-04-28 22:38 38.43613 28.18276 23831 ft 390 kts 263°
2026-04-28 22:39 38.43173 28.14861 23188 ft 390 kts 263°
2026-04-28 22:39 38.42729 28.11460 22593 ft 388 kts 263°
2026-04-28 22:39 38.42278 28.08038 22018 ft 385 kts 263°
2026-04-28 22:39 38.41839 28.04726 21459 ft 382 kts 263°
2026-04-28 22:40 38.41394 28.01389 20906 ft 380 kts 263°
2026-04-28 22:40 38.40952 27.98078 20335 ft 377 kts 263°
2026-04-28 22:40 38.40512 27.94793 19823 ft 374 kts 263°
2026-04-28 22:40 38.40215 27.92587 19442 ft 372 kts 263°
2026-04-28 22:41 38.39780 27.89353 18887 ft 369 kts 262°
2026-04-28 22:41 38.39349 27.86163 18291 ft 360 kts 262°
2026-04-28 22:41 38.38928 27.83058 17687 ft 350 kts 262°
2026-04-28 22:41 38.38519 27.80041 17168 ft 344 kts 262°
2026-04-28 22:42 38.38111 27.77029 16642 ft 342 kts 262°
2026-04-28 22:42 38.37706 27.74049 16115 ft 341 kts 262°
2026-04-28 22:42 38.37302 27.71079 15597 ft 339 kts 262°
2026-04-28 22:42 38.36904 27.68167 15082 ft 337 kts 262°
2026-04-28 22:43 38.36498 27.65194 14564 ft 336 kts 262°
2026-04-28 22:43 38.36099 27.62285 14039 ft 335 kts 262°
2026-04-28 22:43 38.35699 27.59365 13484 ft 334 kts 262°
2026-04-28 22:43 38.35291 27.56404 12941 ft 331 kts 262°
2026-04-28 22:44 38.34893 27.53525 12456 ft 327 kts 262°
2026-04-28 22:44 38.34500 27.50683 11964 ft 325 kts 262°
2026-04-28 22:44 38.34114 27.47886 11455 ft 323 kts 262°
2026-04-28 22:44 38.33726 27.45081 10966 ft 321 kts 262°
2026-04-28 22:45 38.33338 27.42290 10470 ft 319 kts 262°
2026-04-28 22:45 38.32931 27.39542 10204 ft 310 kts 260°
2026-04-28 22:45 38.32462 27.36897 10122 ft 295 kts 259°
2026-04-28 22:45 38.32002 27.34409 10016 ft 283 kts 259°
2026-04-28 22:46 38.31556 27.32013 9753 ft 275 kts 259°
2026-04-28 22:46 38.30947 27.29714 9222 ft 274 kts 243°
2026-04-28 22:46 38.29687 27.27926 8686 ft 274 kts 212°
2026-04-28 22:46 38.27903 27.27189 8293 ft 271 kts 181°
2026-04-28 22:47 38.26040 27.27447 7927 ft 269 kts 167°
2026-04-28 22:47 38.24216 27.27986 7552 ft 268 kts 165°
2026-04-28 22:47 38.22410 27.28558 7198 ft 267 kts 165°
2026-04-28 22:47 38.20601 27.29124 6823 ft 267 kts 165°
2026-04-28 22:48 38.18807 27.29675 6434 ft 266 kts 166°
2026-04-28 22:48 38.16928 27.30245 6041 ft 265 kts 166°
2026-04-28 22:48 38.15175 27.30772 5825 ft 258 kts 166°
2026-04-28 22:48 38.13436 27.31292 5605 ft 251 kts 166°
2026-04-28 22:49 38.11737 27.31800 5233 ft 249 kts 166°
2026-04-28 22:49 38.10045 27.32086 4945 ft 245 kts 181°
2026-04-28 22:49 38.08434 27.31468 4628 ft 244 kts 213°
2026-04-28 22:49 38.07316 27.29883 4357 ft 242 kts 245°
2026-04-28 22:50 38.06783 27.27871 4157 ft 236 kts 257°
2026-04-28 22:50 38.06433 27.25904 3978 ft 222 kts 262°
2026-04-28 22:50 38.06459 27.24017 3885 ft 216 kts 288°
2026-04-28 22:50 38.07245 27.22429 3893 ft 210 kts 322°
2026-04-28 22:51 38.08541 27.21628 3886 ft 208 kts 345°
2026-04-28 22:51 38.09962 27.21174 3868 ft 208 kts 349°
2026-04-28 22:51 38.11371 27.20779 3678 ft 206 kts 349°
2026-04-28 22:51 38.12734 27.20395 3385 ft 194 kts 349°
2026-04-28 22:52 38.14005 27.20028 3107 ft 182 kts 349°
2026-04-28 22:52 38.15191 27.19681 2845 ft 168 kts 349°
2026-04-28 22:52 38.16281 27.19359 2620 ft 154 kts 349°
2026-04-28 22:52 38.17276 27.19064 2470 ft 141 kts 349°
2026-04-28 22:53 38.18221 27.18783 2308 ft 139 kts 349°
2026-04-28 22:53 38.19102 27.18522 2142 ft 138 kts 349°
2026-04-28 22:53 38.20118 27.18220 1951 ft 135 kts 349°
2026-04-28 22:53 38.20994 27.17956 1799 ft 125 kts 349°
2026-04-28 22:54 38.21828 27.17706 1592 ft 122 kts 349°
2026-04-28 22:54 38.22654 27.17460 1428 ft 122 kts 348°
2026-04-28 22:54 38.23483 27.17211 1295 ft 122 kts 349°
2026-04-28 22:54 38.24299 27.16967 1117 ft 120 kts 349°
2026-04-28 22:55 38.25117 27.16715 1020 ft 123 kts 349°
2026-04-28 22:55 38.25946 27.16471 844 ft 122 kts 348°
2026-04-28 22:55 38.26776 27.16227 648 ft 123 kts 348°
2026-04-28 22:55 38.27611 27.15961 512 ft 126 kts 350°
2026-04-28 22:56 38.28457 27.15713 417 ft 117 kts 347°
2026-04-28 22:56 38.28968 27.15565 416 ft 32 kts 346°
2026-04-28 22:56 38.29058 27.15501 413 ft 11 kts 281°
2026-04-28 22:56 38.29039 27.15406 417 ft 12 kts 256°
2026-04-28 22:57 38.29020 27.15301 422 ft 13 kts 257°
2026-04-28 22:57 38.29030 27.15223 414 ft 8 kts 335°
2026-04-28 22:57 38.29087 27.15206 414 ft 9 kts 347°
2026-04-28 22:57 38.29150 27.15187 415 ft 10 kts 346°
2026-04-28 22:58 38.29209 27.15155 418 ft 9 kts 292°
2026-04-28 22:58 38.29199 27.15090 414 ft 7 kts 253°
2026-04-28 22:58 38.29192 27.15053 420 ft 0 kts 257°